CAPE
0 0 0 0 0 0 0 0 0 0 0 0 0 0 0 0 0 2 3 11 21 20 16 10 6 3 0 0 0 0 0 6 9 1 0 0 0 0 0 0 0 0 0
0 0 0 0 0 0 0 0 0 0 0 0 0 0 0 0 0 0 1 19 5 11 1 0 2 7 2 0 0 0 0 0 2 8 1 0 0 0 0 0 0 0 0
0 0 0 0 0 0 0 0 0 0 0 0 0 0 0 0 0 0 0 2 0 0 0 0 0 1 2 5 1 0 0 0 0 0 2 0 0 0 0 0 0 1 1
0 0 0 0 0 0 0 0 0 0 0 0 0 0 0 0 0 0 0 0 0 0 0 0 0 0 0 1 2 2 0 0 0 0 0 1 0 0 0 0 0 1 0
0 0 0 0 0 0 0 0 0 0 0 0 0 0 0 0 0 0 3 0 0 0 0 0 0 0 1 7 15 0 2 0 0 0 0 0 0 0 0 0 0 0 0
0 0 0 0 0 0 0 0 0 0 0 0 0 0 0 2 0 0 0 0 0 0 0 0 1 4 9 12 3 28 19 2 0 0 0 0 0 0 0 0 0 0 1
0 0 0 0 0 0 0 0 0 0 0 0 0 0 0 0 0 0 0 1 0 4 3 11 0 2 0 0 0 3 14 9 0 0 0 0 0 0 0 0 0 0 0
0 0 0 0 0 0 0 0 0 0 0 0 0 0 0 0 0 0 7 0 0 0 0 0 0 0 0 0 0 0 2 6 4 0 0 0 0 0 0 0 0 0 0
0 0 0 0 0 0 0 0 0 0 0 0 0 0 0 0 2 1 0 1 0 0 0 0 9 3 0 0 0 1 1 3 9 0 0 0 0 0 0 0 0 0 0
0 0 0 0 0 0 0 0 0 0 0 0 0 0 1 0 0 2 4 8 2 2 0 2 0 0 1 0 2 2 1 3 6 1 1 0 0 0 1 3 1 0 1
0 0 0 0 0 0 0 0 0 0 0 0 0 0 0 0 1 3 4 7 11 1 0 0 0 0 0 0 2 1 1 3 16 0 0 0 0 0 0 0 0 0 1
0 0 0 0 0 0 0 0 0 0 0 0 0 0 0 0 2 1 3 7 11 12 6 0 0 0 0 1 2 1 1 2 0 0 0 0 0 0 0 0 0 0 2
0 0 0 0 0 0 0 0 0 0 0 0 0 1 0 1 0 0 2 18 14 13 1 0 3 1 1 1 1 1 0 0 0 0 0 0 0 0 0 0 0 0 0
0 0 0 0 0 0 0 0 0 0 0 0 0 0 0 0 0 0 8 3 2 0 0 0 0 0 1 0 1 0 0 0 0 0 0 0 0 0 0 0 0 0 0
0 0 0 0 0 0 0 0 0 0 1 0 0 0 0 1 0 9 3 2 2 0 0 0 0 0 0 0 0 0 0 0 0 0 0 0 0 0 0 0 0 0 0
0 0 0 0 0 0 0 0 0 0 0 0 0 1 2 4 4 1 1 6 3 2 0 0 0 0 0 0 1 0 0 0 0 0 0 0 0 0 0 0 0 0 0
0 0 0 0 0 0 0 0 0 0 0 0 0 0 0 2 1 0 2 5 0 0 0 0 0 0 0 0 0 0 0 0 0 0 0 0 0 0 0 0 0 0 0
0 0 0 0 0 0 0 0 0 0 0 0 0 0 0 0 0 0 1 0 0 0 0 0 0 0 0 0 0 0 0 0 0 0 0 0 0 0 0 0 0 0 0
0 0 0 0 0 0 0 0 0 0 0 0 0 0 0 0 0 0 0 0 0 0 0 0 0 0 0 0 0 0 0 0 0 0 0 0 0 0 0 0 0 0 0
0 0 0 0 0 0 0 0 0 0 0 0 0 0 0 0 0 0 0 0 0 0 0 0 0 0 0 0 0 0 0 0 0 0 0 0 0 0 0 0 0 0 0
0 0 0 0 0 0 0 0 0 0 0 0 0 0 0 0 0 0 0 0 0 0 0 0 0 0 0 0 0 0 0 0 0 0 0 0 0 0 0 0 0 0 0
0 0 0 0 0 0 0 0 0 0 0 0 0 0 1 0 0 0 0 0 0 0 0 0 0 0 0 0 0 0 0 0 0 0 0 0 0 0 0 0 0 0 0
0 0 0 0 0 0 0 0 0 0 0 0 0 0 0 0 0 0 0 0 0 0 0 0 0 0 0 0 0 1 0 0 0 0 0 0 0 0 0 0 0 0 0
0 0 0 0 0 0 0 0 0 0 0 0 0 0 0 0 0 0 0 0 0 0 0 0 0 0 0 0 0 0 1 0 0 0 0 0 0 0 0 0 0 0 0
0 0 0 0 0 0 0 0 0 0 0 0 0 0 0 0 0 0 0 0 0 0 0 0 0 0 0 0 0 0 0 0 0 0 0 0 0 0 0 0 0 0 0
0 0 0 0 0 0 0 0 0 0 0 0 0 0 0 0 0 0 0 0 0 0 0 0 0 0 0 0 0 0 0 0 0 0 0 0 0 0 0 0 0 0 0
CIN
-0 -0 -0 -0 -0 -0 -0 -0 -0 -0 -0 -0 -0 -0 -0 -0 -37 -32 -27 -17 -13 -4 -7 -13 -16 -13 -0 -0 -0 -0 -1 -13 -4 -5 -0 -0 -0 -0 -0 -0 -0 -0 -0
-0 -0 -0 -0 -0 -0 -0 -0 -0 -0 -0 -0 -0 -0 -0 -0 -0 -0 -3 -17 -18 -12 -0 -0 -0 -17 -16 -0 -0 -0 -0 -0 -5 -6 -3 -0 -0 -0 -0 -0 -0 -0 -0
-0 -0 -0 -0 -0 -0 -0 -0 -0 -0 -0 -0 -0 -0 -0 -0 -0 -0 -0 -2 -0 -0 -0 -0 -0 -0 -0 -0 -1 -0 -0 -0 -0 -0 -16 -0 -0 -0 -0 -1 -1 -0 -0
-0 -0 -0 -0 -0 -0 -0 -0 -0 -0 -0 -0 -0 -0 -0 -0 -0 -0 -0 -0 -0 -0 -0 -0 -0 -0 -0 -0 -0 -0 -0 -0 -0 -0 -0 -27 -0 -0 -0 -2 -2 -2 -1
-0 -0 -0 -0 -0 -0 -0 -0 -0 -0 -0 -0 -0 -0 -0 -0 -0 -0 -5 -0 -0 -0 -0 -0 -0 -0 -0 -1 -0 -0 -0 -0 -0 -0 -0 -0 -0 -0 -2 -0 -1 -1 -0
-0 -0 -0 -0 -0 -0 -0 -0 -0 -0 -0 -0 -0 -0 -0 -1 -0 -1 -0 -0 -0 -0 -0 -0 -1 -0 -0 -0 -0 -1 -3 -0 -0 -0 -0 -0 -0 -0 -0 -0 -0 -0 -0
-0 -0 -0 -0 -0 -0 -0 -0 -0 -0 -0 -0 -0 -0 -0 -0 -0 -0 -0 -1 -0 -0 -0 -1 -0 -0 -0 -0 -0 -0 -1 -1 -1 -0 -0 -0 -0 -0 -0 -0 -0 -0 -2
-0 -0 -0 -0 -0 -0 -0 -0 -0 -0 -0 -0 -0 -0 -0 -0 -0 -0 -0 -0 -0 -0 -0 -0 -0 -0 -0 -0 -0 -0 -0 -0 -0 -0 -0 -0 -0 -0 -2 -3 -0 -0 -0
-0 -0 -0 -0 -0 -0 -0 -0 -0 -0 -0 -0 -0 -0 -0 -0 -0 -0 -0 -0 -1 -0 -0 -0 -0 -3 -0 -0 -0 -0 -0 -0 -0 -0 -0 -0 -0 -0 -0 -2 -1 -0 -0
-0 -0 -0 -0 -0 -0 -0 -0 -0 -0 -0 -0 -0 -0 -1 -0 -0 -2 -2 -0 -5 -6 -1 -0 -0 -0 -0 -0 -0 -0 -0 -0 -1 -0 -0 -0 -0 -0 -18 -2 -5 -1 -0
-0 -0 -0 -0 -0 -0 -0 -0 -0 -0 -0 -0 -0 -0 -0 -0 -1 -2 -3 -4 -2 -2 -0 -0 -0 -0 -0 -0 -0 -0 -0 -0 -0 -1 -0 -0 -0 -0 -0 -0 -0 -0 -0
-0 -0 -0 -0 -0 -0 -0 -0 -0 -0 -0 -0 -0 -0 -1 -0 -1 -1 -3 -3 -2 -2 -1 -1 -0 -0 -0 -0 -0 -0 -0 -0 -0 -0 -0 -0 -0 -0 -0 -0 -0 -0 -0
-0 -0 -0 -0 -0 -0 -0 -0 -0 -0 -0 -0 -1 -1 -0 -1 -0 -1 -1 -1 -1 -1 -1 -1 -0 -0 -0 -0 -0 -0 -0 -0 -0 -0 -0 -0 -0 -0 -0 -0 -0 -0 -0
-0 -0 -0 -0 -0 -0 -0 -0 -0 -0 -0 -0 -0 -1 -0 -0 -0 -0 -1 -2 -2 -0 -0 -0 -0 -0 -0 -0 -0 -0 -0 -0 -0 -0 -0 -0 -0 -0 -0 -0 -0 -0 -0
-0 -0 -0 -0 -0 -0 -0 -0 -0 -0 -3 -7 -0 -0 -0 -5 -1 -3 -5 -6 -5 -2 -0 -0 -0 -0 -0 -0 -0 -0 -0 -0 -0 -0 -0 -0 -0 -0 -0 -0 -0 -0 -0
-0 -0 -0 -0 -0 -0 -0 -0 -0 -1 -2 -2 -3 -4 -4 -3 -3 -4 -4 -3 -3 -0 -0 -0 -0 -0 -0 -0 -0 -0 -0 -0 -0 -0 -0 -0 -0 -0 -0 -0 -0 -0 -2
-0 -0 -0 -0 -0 -0 -0 -0 -0 -0 -0 -0 -2 -2 -4 -3 -3 -0 -4 -3 -0 -0 -0 -0 -0 -0 -0 -0 -0 -0 -0 -0 -0 -0 -0 -0 -0 -0 -0 -0 -0 -0 -0
-0 -0 -0 -0 -0 -0 -0 -0 -0 -0 -0 -0 -0 -2 -1 -2 -0 -0 -2 -1 -0 -0 -0 -0 -0 -0 -0 -0 -0 -0 -0 -0 -0 -0 -0 -0 -0 -0 -0 -0 -0 -0 -0
-0 -0 -0 -0 -0 -0 -0 -0 -0 -0 -0 -0 -0 -0 -0 -1 -0 -0 -0 -0 -0 -0 -0 -0 -0 -0 -0 -0 -0 -0 -0 -0 -0 -0 -0 -0 -0 -0 -0 -0 -0 -0 -0
-0 -0 -0 -0 -0 -0 -0 -0 -0 -0 -0 -0 -0 -0 -0 -0 -0 -0 -0 -0 -0 -0 -0 -0 -0 -0 -0 -0 -0 -0 -0 -0 -0 -0 -0 -0 -0 -0 -0 -0 -0 -0 -0
-0 -0 -0 -0 -0 -0 -0 -0 -0 -0 -0 -0 -0 -0 -5 -0 -0 -0 -0 -0 -0 -0 -0 -0 -0 -0 -0 -0 -0 -0 -0 -0 -0 -0 -0 -0 -0 -0 -0 -0 -0 -0 -0
-0 -0 -0 -0 -0 -0 -0 -0 -0 -0 -0 -0 -0 -1 -3 -3 -0 -0 -0 -0 -0 -0 -0 -0 -0 -0 -0 -0 -0 -0 -0 -0 -0 -0 -0 -0 -0 -0 -0 -0 -0 -0 -0
-0 -0 -0 -0 -0 -0 -0 -0 -0 -0 -0 -0 -0 -0 -0 -0 -0 -0 -0 -0 -0 -0 -0 -0 -0 -0 -0 -0 -0 -0 -0 -0 -0 -0 -0 -0 -0 -0 -0 -0 -0 -0 -0
-0 -0 -0 -0 -0 -0 -0 -0 -0 -0 -0 -0 -0 -0 -0 -0 -0 -0 -0 -0 -0 -0 -0 -0 -0 -0 -0 -0 -0 -0 -0 -0 -0 -0 -0 -0 -0 -0 -0 -0 -0 -0 -0
-0 -0 -0 -0 -0 -0 -0 -0 -0 -0 -0 -0 -0 -0 -0 -0 -0 -0 -0 -0 -0 -0 -0 -0 -0 -0 -0 -0 -0 -0 -0 -0 -0 -0 -0 -0 -0 -0 -0 -0 -0 -0 -0
-0 -0 -0 -0 -0 -0 -0 -0 -0 -0 -0 -0 -0 -0 -0 -0 -0 -0 -0 -0 -0 -0 -0 -0 -0 -0 -0 -0 -0 -0 -0 -0 -0 -0 -0 -0 -0 -0 -0 -0 -0 -0 -0
Wind_Speed
28 29 30 32 34 35 37 38 39 40 40 42 42 42 42 43 43 44 45 45 45 45 44 43 44 42 42 40 39 39 39 39 49 47 43 41 43 45 46 45 43 43 42
29 30 32 34 36 37 39 40 41 42 43 44 44 44 45 45 45 46 47 47 48 48 46 47 47 47 45 43 42 42 41 41 45 50 45 42 44 41 43 44 44 43 45
31 32 34 36 37 38 40 41 42 43 43 43 44 45 46 46 47 47 46 46 47 50 50 50 51 52 52 49 46 45 44 42 43 46 48 42 43 43 44 43 45 45 45
32 33 34 36 37 39 39 40 42 42 43 44 45 46 46 47 47 46 49 51 50 48 48 48 49 50 52 53 51 50 47 44 43 44 45 45 44 43 43 46 47 44 47
31 32 34 35 36 38 40 41 42 43 44 45 45 44 47 47 46 49 48 49 51 52 51 50 49 50 51 51 51 50 48 45 43 44 46 45 46 46 46 44 47 47 46
30 32 34 36 37 39 40 42 43 44 45 44 44 47 46 44 47 49 53 54 52 53 52 51 49 49 47 49 51 50 46 47 47 44 45 46 46 43 41 44 46 48 51
30 33 34 36 38 40 42 43 43 45 45 46 46 45 44 48 49 52 53 51 51 49 50 48 50 47 48 50 51 52 51 48 46 45 45 44 44 41 40 43 44 46 49
31 34 36 38 39 40 42 44 44 44 46 45 45 46 48 48 52 54 52 51 51 50 51 51 51 51 48 50 51 53 52 51 48 44 43 44 42 39 39 42 44 46 48
33 35 37 38 41 42 44 44 44 45 44 44 44 48 49 50 51 54 55 52 51 52 51 51 50 50 53 52 52 53 54 52 46 43 42 43 41 39 37 38 40 42 50
34 36 37 38 41 42 42 45 43 43 41 44 45 45 45 49 51 53 54 51 52 51 51 52 54 53 53 53 52 51 53 50 43 37 35 37 36 36 34 37 39 41 42
34 36 36 38 40 39 42 42 42 41 42 44 44 44 45 47 50 51 53 50 48 51 53 54 53 55 56 55 53 51 51 48 44 37 36 34 32 33 33 33 35 39 41
35 35 37 38 39 40 41 41 40 41 42 44 45 46 45 47 47 49 50 50 50 50 52 54 56 56 57 58 56 53 50 48 33 27 28 30 32 33 33 33 33 34 35
36 36 37 38 39 39 39 40 40 40 42 44 45 46 48 47 46 45 45 48 51 48 48 49 49 47 48 50 47 44 38 20 20 23 28 30 30 28 29 29 29 33 37
36 36 37 38 39 38 37 37 38 39 42 44 45 46 47 46 45 44 43 43 45 48 44 41 37 31 29 27 24 14 10 15 19 23 26 28 24 23 26 27 28 30 33
35 35 36 37 37 38 36 36 36 36 38 42 42 43 44 44 44 43 40 36 43 41 40 36 34 29 24 22 17 16 17 19 23 24 25 22 22 22 22 23 27 30 31
35 35 36 37 37 37 37 36 33 35 37 39 39 39 39 39 41 41 35 28 39 36 36 33 32 23 21 20 19 18 18 20 20 19 18 18 19 19 22 24 26 27 29
33 34 35 36 36 36 37 38 39 37 36 38 39 40 40 40 41 38 33 34 37 35 32 30 28 25 23 19 17 14 15 14 13 13 13 14 15 17 19 21 23 25 27
32 33 34 35 34 34 35 36 36 38 41 42 39 40 40 40 40 35 33 31 35 32 30 28 27 26 23 16 13 11 9 10 11 11 12 13 15 17 18 20 22 24 26
32 33 33 33 32 32 34 35 34 35 36 38 38 39 39 38 37 34 32 28 29 32 30 28 25 25 23 20 17 14 12 12 14 15 16 17 18 19 20 21 22 24 26
31 32 32 32 32 33 34 35 35 35 36 37 38 39 38 38 38 35 32 27 24 32 30 28 26 25 23 22 21 17 16 15 15 15 17 17 18 20 21 22 23 24 25
30 32 31 31 33 33 33 34 34 35 35 35 36 35 35 36 34 32 29 26 21 24 31 30 29 27 25 24 23 21 21 17 17 18 18 19 20 21 21 22 23 25 25
31 30 30 32 32 33 33 32 33 33 34 34 35 34 35 34 33 30 27 24 21 17 30 31 31 29 28 26 25 23 21 19 19 19 20 20 21 22 22 23 24 24 25
29 29 30 31 32 32 32 32 32 32 34 34 34 34 34 35 33 32 27 23 21 18 14 33 32 32 30 29 27 25 24 24 22 22 22 22 22 21 22 22 23 24 25
28 28 30 32 32 32 32 33 32 32 33 33 34 33 32 32 31 30 28 24 20 17 13 11 33 34 34 32 30 28 26 24 23 23 23 23 24 23 23 23 23 24 25
27 28 30 31 31 32 32 32 32 32 32 33 33 33 31 30 29 29 28 25 21 18 15 11 7 34 35 35 34 32 30 28 27 25 25 25 25 25 24 24 24 25 25
26 27 29 29 30 31 32 32 31 31 32 33 33 32 31 29 29 29 28 26 24 20 16 13 8 5 35 35 36 36 35 34 31 29 27 27 27 26 26 26 25 25 25
Wind_Direction
1 358 354 351 350 349 348 347 344 341 339 336 333 331 328 326 323 320 316 313 311 308 304 301 297 297 294 293 293 291 288 286 282 283 284 285 284 283 281 281 282 282 281
358 355 353 351 348 347 345 344 343 340 338 335 333 331 329 327 324 321 317 313 310 306 307 303 304 300 292 290 288 287 286 284 283 282 284 284 283 285 283 281 281 281 280
355 354 351 350 349 348 346 345 344 342 340 339 336 333 330 328 325 321 318 317 313 307 303 302 299 297 295 294 286 284 283 283 281 281 282 283 282 282 281 281 281 281 281
356 354 354 353 351 349 348 347 345 343 341 338 336 333 331 328 325 321 318 314 312 310 308 305 301 298 296 291 291 287 281 278 279 280 280 282 282 282 280 279 278 280 279
0 359 357 355 354 351 348 347 345 344 341 339 336 335 331 328 326 322 321 318 314 310 307 305 302 300 298 293 289 289 286 277 276 277 279 280 281 281 279 280 278 279 279
2 360 358 356 354 351 349 347 346 344 342 341 339 335 332 331 329 325 321 317 314 311 308 306 304 301 299 296 293 287 284 282 275 274 278 278 280 281 281 279 279 278 277
2 360 358 356 353 352 350 348 346 345 345 342 339 337 336 332 330 327 324 320 317 314 310 307 304 302 300 298 295 288 282 280 278 273 274 276 279 279 280 279 278 277 275
1 359 358 355 353 352 351 349 348 348 345 344 342 340 337 335 331 328 326 322 317 314 310 306 302 300 299 298 295 292 285 280 276 273 271 275 277 280 278 278 278 278 277
360 359 357 355 353 352 351 351 350 347 347 346 346 342 339 337 336 331 327 323 319 314 311 307 303 300 297 295 293 291 286 281 279 272 266 273 276 277 278 279 277 277 274
359 358 356 356 354 352 354 352 351 350 349 348 345 344 344 341 339 335 331 327 321 317 313 308 302 299 296 293 292 290 285 281 279 271 268 271 274 276 274 275 277 276 276
358 357 357 356 354 355 354 353 352 352 350 348 347 347 346 345 342 339 335 331 327 321 316 309 304 297 293 289 288 286 281 279 277 266 267 270 273 275 273 275 276 276 275
358 357 357 356 357 356 355 354 355 353 351 350 349 348 349 348 347 344 340 334 328 325 319 310 299 290 286 282 281 279 275 271 270 265 265 268 273 273 274 275 277 277 277
357 357 357 358 358 357 357 357 356 356 354 352 351 350 350 351 350 349 346 341 332 328 324 292 285 279 277 280 278 273 270 268 266 266 270 274 276 273 272 276 281 280 278
358 358 358 358 358 359 0 360 359 357 356 355 354 353 353 353 354 353 352 349 343 328 304 298 288 274 267 273 289 302 285 270 275 277 274 267 269 273 274 280 283 281 278
359 359 359 359 360 0 1 1 0 1 360 357 357 357 355 356 356 355 355 356 340 314 311 311 313 306 318 311 308 286 279 276 272 267 255 266 270 276 284 285 278 275 275
359 360 0 1 1 1 1 1 4 3 2 2 2 1 0 359 359 359 0 4 318 319 323 327 328 311 318 296 286 282 275 265 261 264 265 270 276 288 282 275 274 274 275
0 1 2 2 2 2 2 2 360 2 4 5 5 5 5 3 4 5 7 4 329 328 333 333 339 335 334 318 290 291 278 272 277 273 280 281 295 294 284 284 282 281 280
2 3 3 3 3 3 4 3 3 2 1 3 7 7 8 7 8 11 13 10 344 331 328 327 334 339 338 331 338 336 323 312 312 308 302 308 311 301 293 290 288 286 287
3 3 4 4 5 5 5 5 4 3 3 3 4 8 10 10 11 14 17 18 2 323 320 320 321 329 333 336 334 331 326 319 315 309 305 307 298 299 293 296 295 293 293
4 4 5 6 6 6 6 6 5 5 4 4 5 6 8 10 12 15 18 19 14 327 310 313 313 317 319 323 325 320 312 310 314 312 310 301 297 298 297 293 294 296 297
5 4 6 7 7 7 7 6 6 5 4 5 6 7 8 10 12 14 16 19 19 3 307 302 304 309 311 309 312 310 304 304 310 307 306 307 307 305 302 298 297 299 299
4 6 7 7 8 7 7 8 7 6 6 5 6 8 10 12 13 13 14 16 17 17 331 301 295 298 303 305 302 303 304 306 303 304 302 304 304 306 306 305 304 303 304
6 7 7 8 8 8 8 8 7 7 6 6 6 7 10 12 13 14 13 12 14 14 13 313 296 289 296 298 299 297 292 290 295 296 298 302 301 302 303 306 307 306 306
7 7 7 8 8 9 9 8 8 7 7 7 7 8 9 10 11 12 12 12 11 11 10 4 307 291 286 288 289 291 296 294 292 294 297 299 299 296 300 304 308 309 306
7 7 8 7 8 8 8 8 8 8 8 7 7 7 8 8 9 10 11 11 10 7 5 358 349 296 286 284 282 283 286 290 292 291 293 294 295 291 292 297 306 309 309
7 8 7 8 8 8 8 8 8 8 7 7 7 7 7 7 8 8 8 8 7 4 359 0 348 304 293 286 279 277 277 279 281 286 289 288 287 286 288 290 297 307 304